Regional Weather Roundup
Issued by NWS Newport/Morehead, NC

Current Version | Previous Version | Text Only | Print | Product List | Glossary Off
Versions: 1 2 3 4 5 6 7 8 9 10 11 12 13 14 15 16 17 18 19 20 21 22 23 24 25 26 27 28 29 30 31 32 33 34 35 36 37 38 39 40 41 42 43 44 45 46 47 48 49 50
276 ASUS42 KMHX 310313 RWRMHX WEATHER ROUNDUP FOR EASTERN NORTH CAROLINA NATIONAL WEATHER SERVICE NEWPORT/MOREHEAD CITY NC 1100 PM EDT MON MAY 30 2016 NOTE: "FAIR" INDICATES FEW OR NO CLOUDS BELOW 12,000 FEET WITH NO SIGNIFICANT WEATHER AND/OR OBSTRUCTIONS TO VISIBILITY NCZ015>017-031-032-045>047-102-103-310400- NORTH COAST CITY SKY/WX TMP DP RH WIND PRES REMARKS EDENTON CLOUDY N/A N/A N/A CALM 29.97R ELIZABETH CITY CLOUDY 70 69 97 E3 29.96S KITTY HAWK CLOUDY 67 67 99 NE3 29.95F FOG MANTEO NOT AVBL $$ NCZ045>047-081-094-103-104-310400- CENTRAL COAST CITY SKY/WX TMP DP RH WIND PRES REMARKS FRISCO MOCLDY 73 71 93 CALM 29.95S $$ NCZ095-097-098-100-101-310400- SOUTHERN COAST CITY SKY/WX TMP DP RH WIND PRES REMARKS BEAUFORT CLEAR 72 71 97 CALM 29.95R CEDAR ISLAND NOT AVBL JACKSONVILLE CLOUDY 75 71 87 E6 29.93S PINEY ISLAND PTCLDY N/A N/A N/A SE3 29.95 WILMINGTON MOCLDY 73 72 96 E3 29.93R $$ NCZ011>013-027>030-043-044-078>080-089-090>093-098-310400- COASTAL PLAIN CITY SKY/WX TMP DP RH WIND PRES REMARKS AHOSKIE CLOUDY 71 70 97 CALM 29.96F CLINTON CLEAR 73 73 100 CALM 29.94F ELIZABETHTOWN CLOUDY 72 72 100 CALM 29.93S GOLDSBORO NOT AVBL GREENVILLE CLOUDY 72 72 100 E3 29.97F HAVELOCK PTCLDY 72 70 93 SE5 29.95S KENANSVILLE CLOUDY 71 71 98 CALM 29.96S KINSTON CLEAR 72 70 94 E5 29.95F NEW BERN CLOUDY 73 70 90 NE6 29.96S RICHLANDS CLOUDY 71 70 96 CALM 29.95S ROCKY MOUNT CLOUDY 71 70 96 N6 29.96R WASHINGTON CLOUDY 69 68 98 CALM 29.95S WHITEVILLE CLOUDY 72 70 95 E5 29.92S $$ AMZ130-135-150-152-154-156-158-170-250-252-270-ANZ085-086-088-633-658-670-310400- MARINE OBSERVATIONS STATION/POSITION TIME TEMP WIND PRES WAVE SWELL AIR SEA DIR/SP/G HT/PER HT/PER (UTC) (F) (DEG/KT/KT) (MB) (FT/S) (FT/S) CHESAPEAKE LIGHT 0300 69 110/ 8/ 9 1015.2 64 E VA BEACH 0250 67 63 40/ 6/ 8 1015.1 5/ 7 5/ 7 DUCK 0200 59 1014.1 2 E DUCK 0211 61 N/A 3/ 7 OREGON INLET 0218 73 1014.1 13E OREGON INLT 0300 67 N/A 5/ 6 5/ 6 HATTERAS CG 0200 74 1013.7 DIAMOND BUOY 0250 77 81 220/ 10/ 12 1013.8 5/ 8 5/ 8 CAPE LOOKOUT 0300 74 100/ 4/ 5 1013.7 BEAUFORT LAB 0200 76 1013.2 30 SE NEW RVR IN 0225 76 N/A 5/ 8 27 SE WRIGHTSVLE 0208 75 76 280/ 2/ 4 1013.4 5 SE WRIGHTSVLE 0208 77 77 110/ 6/ 10 1014.2 225 S CAPE HAT 0250 76 76 160/ 12/ 14 1015.8 5/ 8 5/ 8 41 SE CHARLESTON 0250 74 77 230/ 8/ 12 1011.9 4/ 8 3/ 8 $$

USA.gov is the U.S. government's official web portal to all federal, state and local government web resources and services.